カタログに戻る

CZ-4C SEP MOTOR COVER

運用中SSO
NORAD 49024·DEBRIS·🇨🇳 China
この衛星名は、まだ公式ソースで確認されていません。

打ち上げ Jul 4, 2021 から Jiuquan Satellite Launch Center

Loading…

次のパス (今後24時間)

TLE

最新Source: Space-Track

元期: Sep 13, 2026, 06:33 UTC

1 49024U 21062D   26256.27298771  .00000195  00000-0  93340-4 0  9992
2 49024  98.6587 277.3572 0005391 146.9554 213.1965 14.29586710270019

AllMySatでCZ-4C SEP MOTOR COVERをリアルタイム追跡

Download on the App Store